This is the latest recevied weather packets stored in our database for station/object KC3JUG-13. If no packets are shown the sender has not sent any weather packets the latest 10 day(s).
| Time | Temp. | Humidity | Pressure | Rain* | Wind** | Luminosity | Snow |
|---|---|---|---|---|---|---|---|
| 1788434786 | 19.44° C | 99% | 1017.6 hPa | 0.51 mm | - | - | - |
| 1788434006 | 19.44° C | 99% | 1017.7 hPa | 0.51 mm | - | - | - |
| 1788433253 | 19.44° C | 99% | 1018.6 hPa | 0.51 mm | - | - | - |
| 1788432446 | 19.44° C | 99% | 1018.9 hPa | 0.51 mm | - | - | - |
| 1788431666 | 19.44° C | 99% | 1019.7 hPa | 0.25 mm | - | - | - |
| 1788430887 | 19.44° C | 99% | 1019.8 hPa | 0.51 mm | - | - | - |
| 1788430106 | 19.44° C | 100% | 1019.1 hPa | 0.76 mm | - | - | - |
| 1788429327 | 19.44° C | 100% | 1018.8 hPa | 3.05 mm | - | - | - |
| 1788428547 | 19.44° C | 100% | 1019 hPa | 6.35 mm | - | - | - |
| 1788427815 | 18.89° C | 100% | 1018.9 hPa | 7.37 mm | - | - | - |
| 1788427767 | 18.89° C | 100% | 1018.9 hPa | 7.37 mm | - | - | - |
| 1788426987 | 18.89° C | 100% | 1019 hPa | 7.62 mm | - | - | - |
| 1788426207 | 18.89° C | 99% | 1019.3 hPa | 9.4 mm | - | - | - |
| 1788425427 | 18.89° C | 100% | 1019.9 hPa | 13.72 mm | - | - | - |
| 1788424647 | 18.89° C | 99% | 1019.8 hPa | 11.18 mm | - | - | - |
| 1788423867 | 18.89° C | 99% | 1019.2 hPa | 10.67 mm | - | - | - |
| 1788423087 | 19.44° C | 99% | 1019.2 hPa | 10.16 mm | - | - | - |
| 1788422307 | 19.44° C | 99% | 1020.4 hPa | 5.59 mm | - | - | - |
| 1788421527 | 20° C | 99% | 1020.3 hPa | 0.76 mm | - | - | - |
| 1788420747 | 20° C | 99% | 1018.9 hPa | 0.76 mm | - | - | - |
| 1788419967 | 20° C | 99% | 1018.5 hPa | 0.51 mm | - | - | - |
| 1788419187 | 20° C | 99% | 1018.5 hPa | 0.51 mm | - | - | - |
| 1788418407 | 20° C | 99% | 1019.2 hPa | 0.51 mm | - | - | - |
| 1788417627 | 20° C | 99% | 1018.9 hPa | 0 mm | - | - | - |
| 1788416847 | 20° C | 99% | 1019.2 hPa | 0.51 mm | - | - | - |
* Rain latest hour (hover to see other rain measurements)
** Current wind speed in m/s (hover to see current wind gust speed)